Location: Unspecified
(0.0000°N, 0.0000°E)
Time: 18:55:10
(UTC+00:00)

A-11 Canister half - Pass Details

Date: 28 November 2019
Orbit: 1526 x 1683 km, 47.3° (Epoch: 08 December)

Event Time Altitude Azimuth Distance (km) Brightness Sun altitude
Rises 07:01:35 0° 233° (SW) 4,882 11.3 17.1°
Reaches altitude 10° 07:04:50 10° 238° (WSW) 3,909 10.9 17.9°
Maximum altitude 07:14:25 49° 310° (NW) 2,066 9.6 20.1°
Drops below altitude 10° 07:24:05 10° 22° (NNE) 3,930 11.2 22.3°
Sets 07:27:24 0° 28° (NNE) 4,910 11.7 23.1°
